Year,Month,Day,Hour,Minute,Value (Times are PST for temperature in C)
2006,06,29,00,00,12.50
2006,06,29,00,01,12.50
2006,06,29,00,02,12.50
2006,06,29,00,03,12.40
2006,06,29,00,04,12.40
2006,06,29,00,05,12.30
2006,06,29,00,06,12.30
2006,06,29,00,07,12.30
2006,06,29,00,08,12.30
2006,06,29,00,09,12.30
2006,06,29,00,10,12.30
2006,06,29,00,11,12.30
2006,06,29,00,12,12.30
2006,06,29,00,13,12.30
2006,06,29,00,14,12.20
2006,06,29,00,15,12.20
2006,06,29,00,16,12.20
2006,06,29,00,17,12.20
2006,06,29,00,18,12.20
2006,06,29,00,19,12.20
2006,06,29,00,20,12.20
2006,06,29,00,21,12.20
2006,06,29,00,22,12.20
2006,06,29,00,23,12.10
2006,06,29,00,24,12.10
2006,06,29,00,25,12.10
2006,06,29,00,26,12.10
2006,06,29,00,27,12.00
2006,06,29,00,28,12.00
2006,06,29,00,29,12.00
2006,06,29,00,30,12.00
2006,06,29,00,31,11.90
2006,06,29,00,32,11.90
2006,06,29,00,33,11.90
2006,06,29,00,34,11.90
2006,06,29,00,35,11.90
2006,06,29,00,36,11.90
2006,06,29,00,37,11.80
2006,06,29,00,38,11.80
2006,06,29,00,39,11.80
2006,06,29,00,40,11.80
2006,06,29,00,41,11.80
2006,06,29,00,42,11.80
2006,06,29,00,43,11.80
2006,06,29,00,44,11.80
2006,06,29,00,45,11.80
2006,06,29,00,46,11.80
2006,06,29,00,47,11.80
2006,06,29,00,48,11.80
2006,06,29,00,49,11.80
2006,06,29,00,50,11.80
2006,06,29,00,51,11.80
2006,06,29,00,52,11.80
2006,06,29,00,53,11.80
2006,06,29,00,54,11.80
2006,06,29,00,55,11.80
2006,06,29,00,56,11.80
2006,06,29,00,57,11.80
2006,06,29,00,58,11.80
2006,06,29,00,59,11.80
2006,06,29,01,00,11.80
2006,06,29,01,01,11.80
2006,06,29,01,02,11.80
2006,06,29,01,03,11.70
2006,06,29,01,04,11.70
2006,06,29,01,05,11.70
2006,06,29,01,06,11.70
2006,06,29,01,07,11.70
2006,06,29,01,08,11.70
2006,06,29,01,09,11.60
2006,06,29,01,10,11.60
2006,06,29,01,11,11.60
2006,06,29,01,12,11.70
2006,06,29,01,13,11.70
2006,06,29,01,14,11.70
2006,06,29,01,15,11.70
2006,06,29,01,16,11.70
2006,06,29,01,17,11.70
2006,06,29,01,18,11.70
2006,06,29,01,19,11.80
2006,06,29,01,20,11.80
2006,06,29,01,21,11.80
2006,06,29,01,22,11.80
2006,06,29,01,23,11.80
2006,06,29,01,24,11.80
2006,06,29,01,25,11.80
2006,06,29,01,26,11.80
2006,06,29,01,27,11.80
2006,06,29,01,28,11.80
2006,06,29,01,29,11.80
2006,06,29,01,30,11.80
2006,06,29,01,31,11.80
2006,06,29,01,32,11.80
2006,06,29,01,33,11.90
2006,06,29,01,34,11.90
2006,06,29,01,35,11.90
2006,06,29,01,36,11.90
2006,06,29,01,37,11.90
2006,06,29,01,38,11.90
2006,06,29,01,39,11.90
2006,06,29,01,40,11.90
2006,06,29,01,41,11.90
2006,06,29,01,42,12.00
2006,06,29,01,43,12.00
2006,06,29,01,44,12.00
2006,06,29,01,45,12.10
2006,06,29,01,46,12.10
2006,06,29,01,47,12.10
2006,06,29,01,48,12.10
2006,06,29,01,49,12.20
2006,06,29,01,50,12.20
2006,06,29,01,51,12.20
2006,06,29,01,52,12.20
2006,06,29,01,53,12.20
2006,06,29,01,54,12.30
2006,06,29,01,55,12.30
2006,06,29,01,56,12.30
2006,06,29,01,57,12.30
2006,06,29,01,58,12.30
2006,06,29,01,59,12.30
2006,06,29,02,00,12.30
2006,06,29,02,01,12.30
2006,06,29,02,02,12.30
2006,06,29,02,03,12.30
2006,06,29,02,04,12.30
2006,06,29,02,05,12.30
2006,06,29,02,06,12.30
2006,06,29,02,07,12.30
2006,06,29,02,08,12.30
2006,06,29,02,09,12.20
2006,06,29,02,10,12.10
2006,06,29,02,11,12.10
2006,06,29,02,12,12.10
2006,06,29,02,13,12.10
2006,06,29,02,14,12.10
2006,06,29,02,15,12.10
2006,06,29,02,16,12.10
2006,06,29,02,17,12.10
2006,06,29,02,18,12.10
2006,06,29,02,19,12.10
2006,06,29,02,20,12.10
2006,06,29,02,21,12.10
2006,06,29,02,22,12.10
2006,06,29,02,23,12.10
2006,06,29,02,24,12.10
2006,06,29,02,25,12.10
2006,06,29,02,26,12.20
2006,06,29,02,27,12.20
2006,06,29,02,28,12.20
2006,06,29,02,29,12.30
2006,06,29,02,30,12.30
2006,06,29,02,31,12.30
2006,06,29,02,32,12.30
2006,06,29,02,33,12.40
2006,06,29,02,34,12.40
2006,06,29,02,35,12.50
2006,06,29,02,36,12.50
2006,06,29,02,37,12.50
2006,06,29,02,38,12.60
2006,06,29,02,39,12.60
2006,06,29,02,40,12.60
2006,06,29,02,41,12.60
2006,06,29,02,42,12.60
2006,06,29,02,43,12.70
2006,06,29,02,44,12.70
2006,06,29,02,45,12.70
2006,06,29,02,46,12.70
2006,06,29,02,47,12.70
2006,06,29,02,48,12.70
2006,06,29,02,49,12.70
2006,06,29,02,50,12.70
2006,06,29,02,51,12.70
2006,06,29,02,52,12.70
2006,06,29,02,53,12.70
2006,06,29,02,54,12.70
2006,06,29,02,55,12.80
2006,06,29,02,56,12.80
2006,06,29,02,57,12.80
2006,06,29,02,58,12.80
2006,06,29,02,59,12.80
2006,06,29,03,00,12.80
2006,06,29,03,01,12.80
2006,06,29,03,02,12.80
2006,06,29,03,03,12.80
2006,06,29,03,04,12.90
2006,06,29,03,05,12.90
2006,06,29,03,06,12.90
2006,06,29,03,07,12.90
2006,06,29,03,08,12.90
2006,06,29,03,09,12.90
2006,06,29,03,10,12.90
2006,06,29,03,11,12.90
2006,06,29,03,12,12.90
2006,06,29,03,13,12.90
2006,06,29,03,14,12.90
2006,06,29,03,15,12.90
2006,06,29,03,16,12.90
2006,06,29,03,17,12.80
2006,06,29,03,18,12.70
2006,06,29,03,19,12.50
2006,06,29,03,20,12.40
2006,06,29,03,21,12.30
2006,06,29,03,22,12.20
2006,06,29,03,23,12.10
2006,06,29,03,24,11.90
2006,06,29,03,25,11.80
2006,06,29,03,26,11.80
2006,06,29,03,27,11.70
2006,06,29,03,28,11.60
2006,06,29,03,29,11.60
2006,06,29,03,30,11.60
2006,06,29,03,31,11.40
2006,06,29,03,32,11.40
2006,06,29,03,33,11.40
2006,06,29,03,34,11.40
2006,06,29,03,35,11.40
2006,06,29,03,36,11.40
2006,06,29,03,37,11.30
2006,06,29,03,38,11.30
2006,06,29,03,39,11.30
2006,06,29,03,40,11.20
2006,06,29,03,41,11.20
2006,06,29,03,42,11.20
2006,06,29,03,43,11.10
2006,06,29,03,44,11.10
2006,06,29,03,45,11.10
2006,06,29,03,46,11.10
2006,06,29,03,47,11.10
2006,06,29,03,48,11.00
2006,06,29,03,49,10.90
2006,06,29,03,50,10.90
2006,06,29,03,51,10.90
2006,06,29,03,52,10.90
2006,06,29,03,53,10.90
2006,06,29,03,54,10.90
2006,06,29,03,55,10.90
2006,06,29,03,56,10.90
2006,06,29,03,57,10.90
2006,06,29,03,58,10.90
2006,06,29,03,59,10.80
2006,06,29,04,00,10.80
2006,06,29,04,01,10.80
2006,06,29,04,02,10.80
2006,06,29,04,03,10.80
2006,06,29,04,04,10.80
2006,06,29,04,05,10.80
2006,06,29,04,06,10.80
2006,06,29,04,07,10.80
2006,06,29,04,08,10.80
2006,06,29,04,09,10.80
2006,06,29,04,10,10.80
2006,06,29,04,11,10.80
2006,06,29,04,12,10.80
2006,06,29,04,13,10.70
2006,06,29,04,14,10.70
2006,06,29,04,15,10.70
2006,06,29,04,16,10.70
2006,06,29,04,17,10.70
2006,06,29,04,18,10.70
2006,06,29,04,19,10.70
2006,06,29,04,20,10.70
2006,06,29,04,21,10.70
2006,06,29,04,22,10.70
2006,06,29,04,23,10.70
2006,06,29,04,24,10.70
2006,06,29,04,25,10.70
2006,06,29,04,26,10.70
2006,06,29,04,27,10.60
2006,06,29,04,28,10.60
2006,06,29,04,29,10.60
2006,06,29,04,30,10.60
2006,06,29,04,31,10.60
2006,06,29,04,32,10.60
2006,06,29,04,33,10.60
2006,06,29,04,34,10.60
2006,06,29,04,35,10.60
2006,06,29,04,36,10.60
2006,06,29,04,37,10.50
2006,06,29,04,38,10.40
2006,06,29,04,39,10.40
2006,06,29,04,40,10.40
2006,06,29,04,41,10.40
2006,06,29,04,42,10.40
2006,06,29,04,43,10.40
2006,06,29,04,44,10.40
2006,06,29,04,45,10.40
2006,06,29,04,46,10.30
2006,06,29,04,47,10.30
2006,06,29,04,48,10.30
2006,06,29,04,49,10.30
2006,06,29,04,50,10.30
2006,06,29,04,51,10.30
2006,06,29,04,52,10.30
2006,06,29,04,53,10.30
2006,06,29,04,54,10.30
2006,06,29,04,55,10.30
2006,06,29,04,56,10.30
2006,06,29,04,57,10.30
2006,06,29,04,58,10.30
2006,06,29,04,59,10.20
2006,06,29,05,00,10.20
2006,06,29,05,01,10.20
2006,06,29,05,02,10.20
2006,06,29,05,03,10.10
2006,06,29,05,04,10.10
2006,06,29,05,05,10.10
2006,06,29,05,06,10.10
2006,06,29,05,07,10.10
2006,06,29,05,08,10.10
2006,06,29,05,09,10.10
2006,06,29,05,10,10.10
2006,06,29,05,11,10.10
2006,06,29,05,12,10.10
2006,06,29,05,13,10.10
2006,06,29,05,14,10.10
2006,06,29,05,15,10.10
2006,06,29,05,16,10.10
2006,06,29,05,17,10.10
2006,06,29,05,18,10.10
2006,06,29,05,19,10.10
2006,06,29,05,20,10.20
2006,06,29,05,21,10.20
2006,06,29,05,22,10.20
2006,06,29,05,23,10.20
2006,06,29,05,24,10.20
2006,06,29,05,25,10.20
2006,06,29,05,26,10.20
2006,06,29,05,27,10.20
2006,06,29,05,28,10.20
2006,06,29,05,29,10.30
2006,06,29,05,30,10.30
2006,06,29,05,31,10.30
2006,06,29,05,32,10.30
2006,06,29,05,33,10.30
2006,06,29,05,34,10.30
2006,06,29,05,35,10.40
2006,06,29,05,36,10.40
2006,06,29,05,37,10.50
2006,06,29,05,38,10.60
2006,06,29,05,39,10.60
2006,06,29,05,40,10.60
2006,06,29,05,41,10.60
2006,06,29,05,42,10.60
2006,06,29,05,43,10.60
2006,06,29,05,44,10.60
2006,06,29,05,45,10.60
2006,06,29,05,46,10.60
2006,06,29,05,47,10.60
2006,06,29,05,48,10.60
2006,06,29,05,49,10.60
2006,06,29,05,50,10.60
2006,06,29,05,51,10.60
2006,06,29,05,52,10.60
2006,06,29,05,53,10.70
2006,06,29,05,54,10.80
2006,06,29,05,55,10.80
2006,06,29,05,56,10.90
2006,06,29,05,57,10.90
2006,06,29,05,58,10.90
2006,06,29,05,59,10.90
2006,06,29,06,00,11.00
2006,06,29,06,01,11.10
2006,06,29,06,02,11.10
2006,06,29,06,03,11.10
2006,06,29,06,04,11.10
2006,06,29,06,05,11.10
2006,06,29,06,06,11.20
2006,06,29,06,07,11.20
2006,06,29,06,08,11.20
2006,06,29,06,09,11.20
2006,06,29,06,10,11.30
2006,06,29,06,11,11.30
2006,06,29,06,12,11.40
2006,06,29,06,13,11.40
2006,06,29,06,14,11.60
2006,06,29,06,15,11.60
2006,06,29,06,16,11.70
2006,06,29,06,17,11.70
2006,06,29,06,18,11.80
2006,06,29,06,19,11.80
2006,06,29,06,20,11.80
2006,06,29,06,21,11.80
2006,06,29,06,22,11.80
2006,06,29,06,23,11.90
2006,06,29,06,24,11.90
2006,06,29,06,25,11.90
2006,06,29,06,26,11.90
2006,06,29,06,27,12.00
2006,06,29,06,28,12.00
2006,06,29,06,29,12.00
2006,06,29,06,30,12.10
2006,06,29,06,31,12.10
2006,06,29,06,32,12.20
2006,06,29,06,33,12.20
2006,06,29,06,34,12.20
2006,06,29,06,35,12.30
2006,06,29,06,36,12.30
2006,06,29,06,37,12.40
2006,06,29,06,38,12.40
2006,06,29,06,39,12.50
2006,06,29,06,40,12.60
2006,06,29,06,41,12.60
2006,06,29,06,42,12.70
2006,06,29,06,43,12.80
2006,06,29,06,44,12.90
2006,06,29,06,45,13.00
2006,06,29,06,46,13.00
2006,06,29,06,47,13.10
2006,06,29,06,48,13.20
2006,06,29,06,49,13.30
2006,06,29,06,50,13.40
2006,06,29,06,51,13.50
2006,06,29,06,52,13.60
2006,06,29,06,53,13.70
2006,06,29,06,54,13.70
2006,06,29,06,55,13.80
2006,06,29,06,56,13.90
2006,06,29,06,57,14.00
2006,06,29,06,58,14.10
2006,06,29,06,59,14.20
2006,06,29,07,00,14.20
2006,06,29,07,01,14.20
2006,06,29,07,02,14.20
2006,06,29,07,03,14.20
2006,06,29,07,04,14.20
2006,06,29,07,05,14.10
2006,06,29,07,06,14.00
2006,06,29,07,07,14.00
2006,06,29,07,08,14.00
2006,06,29,07,09,14.00
2006,06,29,07,10,13.80
2006,06,29,07,11,13.70
2006,06,29,07,12,13.70
2006,06,29,07,13,13.70
2006,06,29,07,14,13.60
2006,06,29,07,15,13.50
2006,06,29,07,16,13.50
2006,06,29,07,17,13.40
2006,06,29,07,18,13.30
2006,06,29,07,19,13.20
2006,06,29,07,20,13.20
2006,06,29,07,21,13.10
2006,06,29,07,22,13.20
2006,06,29,07,23,13.20
2006,06,29,07,24,13.20
2006,06,29,07,25,13.30
2006,06,29,07,26,13.30
2006,06,29,07,27,13.40
2006,06,29,07,28,13.40
2006,06,29,07,29,13.50
2006,06,29,07,30,13.50
2006,06,29,07,31,13.60
2006,06,29,07,32,13.60
2006,06,29,07,33,13.50
2006,06,29,07,34,13.40
2006,06,29,07,35,13.40
2006,06,29,07,36,13.30
2006,06,29,07,37,13.30
2006,06,29,07,38,13.30
2006,06,29,07,39,13.30
2006,06,29,07,40,13.30
2006,06,29,07,41,13.30
2006,06,29,07,42,13.30
2006,06,29,07,43,13.30
2006,06,29,07,44,13.30
2006,06,29,07,45,13.30
2006,06,29,07,46,13.30
2006,06,29,07,47,13.40
2006,06,29,07,48,13.50
2006,06,29,07,49,13.50
2006,06,29,07,50,13.60
2006,06,29,07,51,13.60
2006,06,29,07,52,13.70
2006,06,29,07,53,13.80
2006,06,29,07,54,13.90
2006,06,29,07,55,14.00
2006,06,29,07,56,14.10
2006,06,29,07,57,14.20
2006,06,29,07,58,14.20
2006,06,29,07,59,14.20
2006,06,29,08,00,14.20
2006,06,29,08,01,14.30
2006,06,29,08,02,14.30
2006,06,29,08,03,14.10
2006,06,29,08,04,14.00
2006,06,29,08,05,13.90
2006,06,29,08,06,13.90
2006,06,29,08,07,13.90
2006,06,29,08,08,13.70
2006,06,29,08,09,13.70
2006,06,29,08,10,13.70
2006,06,29,08,11,13.70
2006,06,29,08,12,13.70
2006,06,29,08,13,13.80
2006,06,29,08,14,13.80
2006,06,29,08,15,13.80
2006,06,29,08,16,13.70
2006,06,29,08,17,13.70
2006,06,29,08,18,13.70
2006,06,29,08,19,13.60
2006,06,29,08,20,13.50
2006,06,29,08,21,13.50
2006,06,29,08,22,13.40
2006,06,29,08,23,13.30
2006,06,29,08,24,13.20
2006,06,29,08,25,13.20
2006,06,29,08,26,13.20
2006,06,29,08,27,13.30
2006,06,29,08,28,13.30
2006,06,29,08,29,13.40
2006,06,29,08,30,13.40
2006,06,29,08,31,13.50
2006,06,29,08,32,13.50
2006,06,29,08,33,13.60
2006,06,29,08,34,13.70
2006,06,29,08,35,13.70
2006,06,29,08,36,13.80
2006,06,29,08,37,13.90
2006,06,29,08,38,13.90
2006,06,29,08,39,14.00
2006,06,29,08,40,14.10
2006,06,29,08,41,14.10
2006,06,29,08,42,14.20
2006,06,29,08,43,14.30
2006,06,29,08,44,14.40
2006,06,29,08,45,14.40
2006,06,29,08,46,14.40
2006,06,29,08,47,14.40
2006,06,29,08,48,14.40
2006,06,29,08,49,14.40
2006,06,29,08,50,14.40
2006,06,29,08,51,14.30
2006,06,29,08,52,14.30
2006,06,29,08,53,14.30
2006,06,29,08,54,14.30
2006,06,29,08,55,14.30
2006,06,29,08,56,14.40
2006,06,29,08,57,14.40
2006,06,29,08,58,14.50
2006,06,29,08,59,14.50
2006,06,29,09,00,14.60
2006,06,29,09,01,14.70
2006,06,29,09,02,14.80
2006,06,29,09,03,14.70
2006,06,29,09,04,14.70
2006,06,29,09,05,14.60
2006,06,29,09,06,14.60
2006,06,29,09,07,14.60
2006,06,29,09,08,14.60
2006,06,29,09,09,14.50
2006,06,29,09,10,14.40
2006,06,29,09,11,14.30
2006,06,29,09,12,14.20
2006,06,29,09,13,14.10
2006,06,29,09,14,14.10
2006,06,29,09,15,14.00
2006,06,29,09,16,14.00
2006,06,29,09,17,14.00
2006,06,29,09,18,14.10
2006,06,29,09,19,14.10
2006,06,29,09,20,14.00
2006,06,29,09,21,14.00
2006,06,29,09,22,13.90
2006,06,29,09,23,13.90
2006,06,29,09,24,13.90
2006,06,29,09,25,13.90
2006,06,29,09,26,13.90
2006,06,29,09,27,13.90
2006,06,29,09,28,13.90
2006,06,29,09,29,13.90
2006,06,29,09,30,14.00
2006,06,29,09,31,14.00
2006,06,29,09,32,14.00
2006,06,29,09,33,14.00
2006,06,29,09,34,14.00
2006,06,29,09,35,14.10
2006,06,29,09,36,14.20
2006,06,29,09,37,14.40
2006,06,29,09,38,14.50
2006,06,29,09,39,14.60
2006,06,29,09,40,14.70
2006,06,29,09,41,14.80
2006,06,29,09,42,14.80
2006,06,29,09,43,14.90
2006,06,29,09,44,14.90
2006,06,29,09,45,14.90
2006,06,29,09,46,14.90
2006,06,29,09,47,15.00
2006,06,29,09,48,15.10
2006,06,29,09,49,15.20
2006,06,29,09,50,15.40
2006,06,29,09,51,15.60
2006,06,29,09,52,15.90
2006,06,29,09,53,16.20
2006,06,29,09,54,16.60
2006,06,29,09,55,16.90
2006,06,29,09,56,17.20
2006,06,29,09,57,17.40
2006,06,29,09,58,17.70
2006,06,29,09,59,17.90
2006,06,29,10,00,18.10
2006,06,29,10,01,18.20
2006,06,29,10,02,18.30
2006,06,29,10,03,18.30
2006,06,29,10,04,18.30
2006,06,29,10,05,18.40
2006,06,29,10,06,18.50
2006,06,29,10,07,18.50
2006,06,29,10,08,18.50
2006,06,29,10,09,18.50
2006,06,29,10,10,18.50
2006,06,29,10,11,18.50
2006,06,29,10,12,18.50
2006,06,29,10,13,18.40
2006,06,29,10,14,18.40
2006,06,29,10,15,18.40
2006,06,29,10,16,18.50
2006,06,29,10,17,18.60
2006,06,29,10,18,18.70
2006,06,29,10,19,18.70
2006,06,29,10,20,18.70
2006,06,29,10,21,18.70
2006,06,29,10,22,18.60
2006,06,29,10,23,18.60
2006,06,29,10,24,18.50
2006,06,29,10,25,18.50
2006,06,29,10,26,18.60
2006,06,29,10,27,18.60
2006,06,29,10,28,18.70
2006,06,29,10,29,18.80
2006,06,29,10,30,18.90
2006,06,29,10,31,19.10
2006,06,29,10,32,19.10
2006,06,29,10,33,19.30
2006,06,29,10,34,19.30
2006,06,29,10,35,19.40
2006,06,29,10,36,19.50
2006,06,29,10,37,19.40
2006,06,29,10,38,19.40
2006,06,29,10,39,19.30
2006,06,29,10,40,19.30
2006,06,29,10,41,19.30
2006,06,29,10,42,19.30
2006,06,29,10,43,19.20
2006,06,29,10,44,19.10
2006,06,29,10,45,19.10
2006,06,29,10,46,19.10
2006,06,29,10,47,19.10
2006,06,29,10,48,19.20
2006,06,29,10,49,19.10
2006,06,29,10,50,19.10
2006,06,29,10,51,19.20
2006,06,29,10,52,19.30
2006,06,29,10,53,19.40
2006,06,29,10,54,19.40
2006,06,29,10,55,19.40
2006,06,29,10,56,19.50
2006,06,29,10,57,19.50
2006,06,29,10,58,19.50
2006,06,29,10,59,19.40
2006,06,29,11,00,19.20
2006,06,29,11,01,19.10
2006,06,29,11,02,19.20
2006,06,29,11,03,19.40
2006,06,29,11,04,19.40
2006,06,29,11,05,19.50
2006,06,29,11,06,19.60
2006,06,29,11,07,19.60
2006,06,29,11,08,19.60
2006,06,29,11,09,19.60
2006,06,29,11,10,19.60
2006,06,29,11,11,19.60
2006,06,29,11,12,19.60
2006,06,29,11,13,19.60
2006,06,29,11,14,19.60
2006,06,29,11,15,19.70
2006,06,29,11,16,19.80
2006,06,29,11,17,19.80
2006,06,29,11,18,19.90
2006,06,29,11,19,19.80
2006,06,29,11,20,19.60
2006,06,29,11,21,19.60
2006,06,29,11,22,19.60
2006,06,29,11,23,19.70
2006,06,29,11,24,19.80
2006,06,29,11,25,19.80
2006,06,29,11,26,19.90
2006,06,29,11,27,20.00
2006,06,29,11,28,20.10
2006,06,29,11,29,20.10
2006,06,29,11,30,20.10
2006,06,29,11,31,20.10
2006,06,29,11,32,20.00
2006,06,29,11,33,20.00
2006,06,29,11,34,20.10
2006,06,29,11,35,20.10
2006,06,29,11,36,20.10
2006,06,29,11,37,20.20
2006,06,29,11,38,20.20
2006,06,29,11,39,20.20
2006,06,29,11,40,20.30
2006,06,29,11,41,20.30
2006,06,29,11,42,20.40
2006,06,29,11,43,20.40
2006,06,29,11,44,20.40
2006,06,29,11,45,20.50
2006,06,29,11,46,20.50
2006,06,29,11,47,20.60
2006,06,29,11,48,20.60
2006,06,29,11,49,20.70
2006,06,29,11,50,20.80
2006,06,29,11,51,20.80
2006,06,29,11,52,20.80
2006,06,29,11,53,20.80
2006,06,29,11,54,20.80
2006,06,29,11,55,20.80
2006,06,29,11,56,20.70
2006,06,29,11,57,20.70
2006,06,29,11,58,20.70
2006,06,29,11,59,20.60
2006,06,29,12,00,20.60
2006,06,29,12,01,20.60
2006,06,29,12,02,20.70
2006,06,29,12,03,20.70
2006,06,29,12,04,20.70
2006,06,29,12,05,20.80
2006,06,29,12,06,21.00
2006,06,29,12,07,21.00
2006,06,29,12,08,20.90
2006,06,29,12,09,20.90
2006,06,29,12,10,20.90
2006,06,29,12,11,21.00
2006,06,29,12,12,21.00
2006,06,29,12,13,21.10
2006,06,29,12,14,21.10
2006,06,29,12,15,21.20
2006,06,29,12,16,21.40
2006,06,29,12,17,21.50
2006,06,29,12,18,21.60
2006,06,29,12,19,21.70
2006,06,29,12,20,21.70
2006,06,29,12,21,21.70
2006,06,29,12,22,21.60
2006,06,29,12,23,21.60
2006,06,29,12,24,21.50
2006,06,29,12,25,21.50
2006,06,29,12,26,21.60
2006,06,29,12,27,21.60
2006,06,29,12,28,21.60
2006,06,29,12,29,21.60
2006,06,29,12,30,21.70
2006,06,29,12,31,21.80
2006,06,29,12,32,21.90
2006,06,29,12,33,22.00
2006,06,29,12,34,22.00
2006,06,29,12,35,22.00
2006,06,29,12,36,22.20
2006,06,29,12,37,22.30
2006,06,29,12,38,22.40
2006,06,29,12,39,22.30
2006,06,29,12,40,22.20
2006,06,29,12,41,22.10
2006,06,29,12,42,22.00
2006,06,29,12,43,21.70
2006,06,29,12,44,21.30
2006,06,29,12,45,20.90
2006,06,29,12,46,20.50
2006,06,29,12,47,20.30
2006,06,29,12,48,20.20
2006,06,29,12,49,20.20
2006,06,29,12,50,20.10
2006,06,29,12,51,19.90
2006,06,29,12,52,19.90
2006,06,29,12,53,19.90
2006,06,29,12,54,19.90
2006,06,29,12,55,19.70
2006,06,29,12,56,19.50
2006,06,29,12,57,19.40
2006,06,29,12,58,19.40
2006,06,29,12,59,19.40
2006,06,29,13,00,19.50
2006,06,29,13,01,19.60
2006,06,29,13,02,19.50
2006,06,29,13,03,19.50
2006,06,29,13,04,19.50
2006,06,29,13,05,19.60
2006,06,29,13,06,19.70
2006,06,29,13,07,19.90
2006,06,29,13,08,19.90
2006,06,29,13,09,19.90
2006,06,29,13,10,19.90
2006,06,29,13,11,20.10
2006,06,29,13,12,20.20
2006,06,29,13,13,20.20
2006,06,29,13,14,20.20
2006,06,29,13,15,20.30
2006,06,29,13,16,20.30
2006,06,29,13,17,20.20
2006,06,29,13,18,20.10
2006,06,29,13,19,20.10
2006,06,29,13,20,20.10
2006,06,29,13,21,20.10
2006,06,29,13,22,20.00
2006,06,29,13,23,20.10
2006,06,29,13,24,20.00
2006,06,29,13,25,19.60
2006,06,29,13,26,19.20
2006,06,29,13,27,18.90
2006,06,29,13,28,18.60
2006,06,29,13,29,18.30
2006,06,29,13,30,18.10
2006,06,29,13,31,17.90
2006,06,29,13,32,17.80
2006,06,29,13,33,17.70
2006,06,29,13,34,17.70
2006,06,29,13,35,17.80
2006,06,29,13,36,17.90
2006,06,29,13,37,18.10
2006,06,29,13,38,18.20
2006,06,29,13,39,18.20
2006,06,29,13,40,18.30
2006,06,29,13,41,18.30
2006,06,29,13,42,18.30
2006,06,29,13,43,18.20
2006,06,29,13,44,18.20
2006,06,29,13,45,18.20
2006,06,29,13,46,18.30
2006,06,29,13,47,18.30
2006,06,29,13,48,18.40
2006,06,29,13,49,18.40
2006,06,29,13,50,18.50
2006,06,29,13,51,18.60
2006,06,29,13,52,18.90
2006,06,29,13,53,19.00
2006,06,29,13,54,19.10
2006,06,29,13,55,19.10
2006,06,29,13,56,19.10
2006,06,29,13,57,19.10
2006,06,29,13,58,19.00
2006,06,29,13,59,19.00
2006,06,29,14,00,19.10
2006,06,29,14,01,19.10
2006,06,29,14,02,19.00
2006,06,29,14,03,18.90
2006,06,29,14,04,18.80
2006,06,29,14,05,18.70
2006,06,29,14,06,18.60
2006,06,29,14,07,18.40
2006,06,29,14,08,18.30
2006,06,29,14,09,18.20
2006,06,29,14,10,18.30
2006,06,29,14,11,18.30
2006,06,29,14,12,18.30
2006,06,29,14,13,18.10
2006,06,29,14,14,17.80
2006,06,29,14,15,17.80
2006,06,29,14,16,17.90
2006,06,29,14,17,17.90
2006,06,29,14,18,18.00
2006,06,29,14,19,17.80
2006,06,29,14,20,17.50
2006,06,29,14,21,17.30
2006,06,29,14,22,17.50
2006,06,29,14,23,17.60
2006,06,29,14,24,17.60
2006,06,29,14,25,17.60
2006,06,29,14,26,17.60
2006,06,29,14,27,17.70
2006,06,29,14,28,17.70
2006,06,29,14,29,17.60
2006,06,29,14,30,17.70
2006,06,29,14,31,17.70
2006,06,29,14,32,17.70
2006,06,29,14,33,17.80
2006,06,29,14,34,17.80
2006,06,29,14,35,17.80
2006,06,29,14,36,17.90
2006,06,29,14,37,18.00
2006,06,29,14,38,18.20
2006,06,29,14,39,18.30
2006,06,29,14,40,18.40
2006,06,29,14,41,18.50
2006,06,29,14,42,18.50
2006,06,29,14,43,18.50
2006,06,29,14,44,18.70
2006,06,29,14,45,19.00
2006,06,29,14,46,19.10
2006,06,29,14,47,19.10
2006,06,29,14,48,19.10
2006,06,29,14,49,19.20
2006,06,29,14,50,19.20
2006,06,29,14,51,19.10
2006,06,29,14,52,19.00
2006,06,29,14,53,19.00
2006,06,29,14,54,19.10
2006,06,29,14,55,19.10
2006,06,29,14,56,19.10
2006,06,29,14,57,19.10
2006,06,29,14,58,19.10
2006,06,29,14,59,19.10
2006,06,29,15,00,19.10
2006,06,29,15,01,19.20
2006,06,29,15,02,19.30
2006,06,29,15,03,19.40
2006,06,29,15,04,19.40
2006,06,29,15,05,19.40
2006,06,29,15,06,19.30
2006,06,29,15,07,19.30
2006,06,29,15,08,19.20
2006,06,29,15,09,19.20
2006,06,29,15,10,19.20
2006,06,29,15,11,19.30
2006,06,29,15,12,19.30
2006,06,29,15,13,19.40
2006,06,29,15,14,19.40
2006,06,29,15,15,19.60
2006,06,29,15,16,19.70
2006,06,29,15,17,19.80
2006,06,29,15,18,19.80
2006,06,29,15,19,20.00
2006,06,29,15,20,20.00
2006,06,29,15,21,19.90
2006,06,29,15,22,19.80
2006,06,29,15,23,19.80
2006,06,29,15,24,19.70
2006,06,29,15,25,19.60
2006,06,29,15,26,19.50
2006,06,29,15,27,19.40
2006,06,29,15,28,19.50
2006,06,29,15,29,19.50
2006,06,29,15,30,19.50
2006,06,29,15,31,19.40
2006,06,29,15,32,19.20
2006,06,29,15,33,19.10
2006,06,29,15,34,19.10
2006,06,29,15,35,19.10
2006,06,29,15,36,19.10
2006,06,29,15,37,19.10
2006,06,29,15,38,19.20
2006,06,29,15,39,19.40
2006,06,29,15,40,19.60
2006,06,29,15,41,19.90
2006,06,29,15,42,19.90
2006,06,29,15,43,19.90
2006,06,29,15,44,19.90
2006,06,29,15,45,19.90
2006,06,29,15,46,19.90
2006,06,29,15,47,19.70
2006,06,29,15,48,19.60
2006,06,29,15,49,19.50
2006,06,29,15,50,19.50
2006,06,29,15,51,19.60
2006,06,29,15,52,19.80
2006,06,29,15,53,19.80
2006,06,29,15,54,19.80
2006,06,29,15,55,19.90
2006,06,29,15,56,19.90
2006,06,29,15,57,20.00
2006,06,29,15,58,20.10
2006,06,29,15,59,20.20
2006,06,29,16,00,20.20
2006,06,29,16,01,20.20
2006,06,29,16,02,20.30
2006,06,29,16,03,20.40
2006,06,29,16,04,20.50
2006,06,29,16,05,20.50
2006,06,29,16,06,20.60
2006,06,29,16,07,20.60
2006,06,29,16,08,20.50
2006,06,29,16,09,20.50
2006,06,29,16,10,20.40
2006,06,29,16,11,20.40
2006,06,29,16,12,20.50
2006,06,29,16,13,20.70
2006,06,29,16,14,20.80
2006,06,29,16,15,20.80
2006,06,29,16,16,20.90
2006,06,29,16,17,20.90
2006,06,29,16,18,20.90
2006,06,29,16,19,21.00
2006,06,29,16,20,21.00
2006,06,29,16,21,20.90
2006,06,29,16,22,20.90
2006,06,29,16,23,21.00
2006,06,29,16,24,21.00
2006,06,29,16,25,21.00
2006,06,29,16,26,21.30
2006,06,29,16,27,21.30
2006,06,29,16,28,21.30
2006,06,29,16,29,21.30
2006,06,29,16,30,21.00
2006,06,29,16,31,20.80
2006,06,29,16,32,20.60
2006,06,29,16,33,20.40
2006,06,29,16,34,20.40
2006,06,29,16,35,20.30
2006,06,29,16,36,20.20
2006,06,29,16,37,20.20
2006,06,29,16,38,20.20
2006,06,29,16,39,20.20
2006,06,29,16,40,20.10
2006,06,29,16,41,19.90
2006,06,29,16,42,19.90
2006,06,29,16,43,19.60
2006,06,29,16,44,19.40
2006,06,29,16,45,19.30
2006,06,29,16,46,19.30
2006,06,29,16,47,19.30
2006,06,29,16,48,19.10
2006,06,29,16,49,19.10
2006,06,29,16,50,19.10
2006,06,29,16,51,19.10
2006,06,29,16,52,19.10
2006,06,29,16,53,19.10
2006,06,29,16,54,19.20
2006,06,29,16,55,19.30
2006,06,29,16,56,19.30
2006,06,29,16,57,19.40
2006,06,29,16,58,19.60
2006,06,29,16,59,19.60
2006,06,29,17,00,19.60
2006,06,29,17,01,19.70
2006,06,29,17,02,19.80
2006,06,29,17,03,19.90
2006,06,29,17,04,20.00
2006,06,29,17,05,20.10
2006,06,29,17,06,20.00
2006,06,29,17,07,19.90
2006,06,29,17,08,19.90
2006,06,29,17,09,19.80
2006,06,29,17,10,19.80
2006,06,29,17,11,19.80
2006,06,29,17,12,19.70
2006,06,29,17,13,19.50
2006,06,29,17,14,19.20
2006,06,29,17,15,19.10
2006,06,29,17,16,19.10
2006,06,29,17,17,19.20
2006,06,29,17,18,19.30
2006,06,29,17,19,19.30